This is the latest recevied weather packets stored in our database for station/object N6ZHV-13. If no packets are shown the sender has not sent any weather packets the latest 10 day(s).
| Time | Temp. | Humidity | Pressure | Rain* | Wind** | Luminosity | Snow |
|---|---|---|---|---|---|---|---|
| 1788571622 | 23.89° C | 60% | 1006.6 hPa | 0 mm | - | - | - |
| 1788571322 | 24.44° C | 58% | 1006.7 hPa | 0 mm | - | - | - |
| 1788571022 | 24.44° C | 52% | 1006.8 hPa | 0 mm | - | - | - |
| 1788570722 | 24.44° C | 51% | 1006.8 hPa | 0 mm | - | - | - |
| 1788570422 | 25° C | 50% | 1006.8 hPa | 0 mm | - | - | - |
| 1788570122 | 25° C | 49% | 1006.8 hPa | 0 mm | - | - | - |
| 1788569822 | 25.56° C | 48% | 1006.7 hPa | 0 mm | - | - | - |
| 1788569522 | 25° C | 47% | 1006.8 hPa | 0 mm | - | - | - |
| 1788569222 | 25.56° C | 46% | 1006.8 hPa | 0 mm | - | - | - |
| 1788568922 | 25.56° C | 44% | 1006.9 hPa | 0 mm | - | - | - |
| 1788568630 | 25.56° C | 42% | 1006.9 hPa | 0 mm | - | - | - |
| 1788568622 | 25.56° C | 42% | 1006.9 hPa | 0 mm | - | - | - |
| 1788568322 | 25.56° C | 46% | 1006.9 hPa | 0 mm | - | - | - |
| 1788568022 | 25.56° C | 44% | 1007 hPa | 0 mm | - | - | - |
| 1788567722 | 25.56° C | 44% | 1007.1 hPa | 0 mm | - | - | - |
| 1788567422 | 25.56° C | 45% | 1007.1 hPa | 0 mm | - | - | - |
| 1788567122 | 26.11° C | 44% | 1007.2 hPa | 0 mm | - | - | - |
| 1788566822 | 25.56° C | 42% | 1007.2 hPa | 0 mm | - | - | - |
| 1788566522 | 26.11° C | 43% | 1007.2 hPa | 0 mm | - | - | - |
| 1788566222 | 26.11° C | 41% | 1007.2 hPa | 0 mm | - | - | - |
| 1788565922 | 26.11° C | 41% | 1007.2 hPa | 0 mm | - | - | - |
| 1788565622 | 26.67° C | 36% | 1007.2 hPa | 0 mm | - | - | - |
| 1788565322 | 26.67° C | 37% | 1007.3 hPa | 0 mm | - | - | - |
| 1788565022 | 26.67° C | 37% | 1007.3 hPa | 0 mm | - | - | - |
| 1788564722 | 26.67° C | 36% | 1007.3 hPa | 0 mm | - | - | - |
* Rain latest hour (hover to see other rain measurements)
** Current wind speed in m/s (hover to see current wind gust speed)